Regional Weather Roundup
Issued by NWS Little Rock, AR

Home | Current Version | Previous Version | Text Only | Print | Product List | Glossary On
Versions: 1 2 3 4 5 6 7 8 9 10 11 12 13 14 15 16 17 18 19 20 21 22 23 24 25 26 27 28 29 30 31 32 33 34 35 36 37 38 39 40 41 42 43 44 45 46 47 48 49 50
858
ASUS44 KLZK 061605
RWRLZK

WEATHER ROUNDUP FOR ARKANSAS
NATIONAL WEATHER SERVICE LITTLE ROCK AR
1000 AM CST SAT FEB 06 2016

NOTE: "FAIR" INDICATES FEW OR NO CLOUDS BELOW 12,000 FEET WITH NO
SIGNIFICANT WEATHER AND/OR OBSTRUCTIONS TO VISIBILITY.

ARZ001-003-010-029-061700-
NORTHWEST ARKANSAS

CITY           SKY/WX    TMP DP  RH WIND       PRES   REMARKS
FAYETTEVILLE   SUNNY     39  27  62 CALM      30.35R
FORT SMITH     SUNNY     42  20  41 E5        30.38R
HARRISON       SUNNY     47  21  35 W7        30.34R
BENTONVILLE    SUNNY     45  21  39 CALM      30.35R
ROGERS         SUNNY     44  25  47 CALM      30.35R
SILOAM SPGS    SUNNY     45  23  42 SW3       30.35R
HIGHFILL       SUNNY     43  25  49 S6        30.34R
SPRINGDALE     SUNNY     41  21  45 CALM      30.36R
$$

ARZ004-005-016-061700-
NORTH CENTRAL ARKANSAS

CITY           SKY/WX    TMP DP  RH WIND       PRES   REMARKS
BATESVILLE     SUNNY     46  23  39 SW3       30.37S
FLIPPIN        MOSUNNY   36  21  55 CALM      30.34R
MTN HOME       MOSUNNY   42  19  39 SW5       30.34R
$$

ARZ040-041-061700-
WEST CENTRAL ARKANSAS

CITY           SKY/WX    TMP DP  RH WIND       PRES   REMARKS
MENA           SUNNY     43  27  52 CALM      30.35R
MOUNT IDA      SUNNY     40  26  57 CALM      30.33R
$$

ARZ009-017-025-026-028-061700-
NORTHEAST ARKANSAS

CITY           SKY/WX    TMP DP  RH WIND       PRES   REMARKS
CORNING        FAIR      43  27  52 SW6       30.39R
JONESBORO      MOSUNNY   43  30  60 SE5       30.39S
NEWPORT        MOSUNNY   45  29  53 CALM      30.40S
WALNUT RIDGE   SUNNY     39  28  65 S3        30.37F
BLYTHEVILLE    MOSUNNY   48  31  51 SW6       30.40S
$$

ARZ022-023-033-042-044-061700-
CENTRAL ARKANSAS

CITY           SKY/WX    TMP DP  RH WIND       PRES   REMARKS
LITTLE ROCK    MOSUNNY   45  28  51 E3        30.39R
N LITTLE ROCK  MOSUNNY   48  24  39 S7        30.39R
JACKSONVILLE   MOSUNNY   45  25  45 E5        30.37R
SEARCY         PTSUNNY   43  26  51 CALM      30.40S
HOT SPRINGS    SUNNY     45  24  43 SE3       30.36R
RUSSELLVILLE   MOSUNNY   40  25  55 CALM      30.37R
CLINTON        FAIR      36  25  64 CALM      30.39R
$$

ARZ036-061700-
EAST ARKANSAS

CITY           SKY/WX    TMP DP  RH WIND       PRES   REMARKS
WEST MEMPHIS   CLOUDY    47  31  53 S3        30.39S
$$

ARZ050-053-066-070-073-061700-
SOUTHWEST ARKANSAS

CITY           SKY/WX    TMP DP  RH WIND       PRES   REMARKS
ARKADELPHIA    FAIR      44  29  56 CALM      30.38R
CAMDEN         SUNNY     46  27  46 S3        30.37R
TEXARKANA      MOSUNNY   42  30  62 CALM      30.35R
EL DORADO      MOSUNNY   45  29  53 S3        30.36R
DE QUEEN       MOSUNNY   43  27  53 VRB5      30.35R
$$

ARZ056-057-069-061700-
SOUTHEAST ARKANSAS

CITY           SKY/WX    TMP DP  RH WIND       PRES   REMARKS
PINE BLUFF     SUNNY     47  31  53 E3        30.38R
STUTTGART      MOSUNNY   48  28  46 SE8       30.38S
MONTICELLO     SUNNY     50  24  36 S6        30.37R

$$






USA.gov is the U.S. government's official web portal to all federal, state and local government web resources and services.